LEMUR-2-DJUPROERA (46316 NORAD) Tracking and Keplerian Element Data

This shows tracking and keplerian element data for the satellite.

Feedback or suggestion? Click here.




ElementValue
Catalog46316
NameLEMUR-2-DJUPROERA
Epoch Orbit1262
Epoch Day330.84977721
Epoch Year2020
RAAN42.5137
Inclination97.5123
Eccentricity0.0001871
Argument of Perigee7.7892
Mean Anonmoly352.3367
Mean Motion15.11203709
Decay Rate2.921E-05
L11 46316U 20061AW 20330.84977721 .00002921 00000-0 17773-3 0 9994
L22 46316 97.5123 42.5137 0001871 7.7892 352.3367 15.11203709 12620

Live tracking and technical data element details for LEMUR-2-DJUPROERA (NORAD 46316). LEMUR-2-DJUPROERA can be tracked NOW for your location showing map with azimuth and elevation plus other details from your city location.

Track the satellite on the map from your city or location and see movement details for azimuth, elevation, latitude, longitude, range, height, and movement on the map or in text.







IsCatalogInMostPopularTable: catalog: 46316, numindb: 19
Update: records affected: 1



GetName: 46316 LEMUR-2-DJUPROERA

Hit Count: updated at: Thu, 26 Nov 2020 23:39:49 GMT